[[{"header":{"parameterUnit":"m.s-1","parameterCategory":1,"la1":30.2991,"la2":30.254,"lo1":-89.0895,"lo2":-89.0444,"dy":0.0017,"dx":0.0017,"nx":28,"ny":28,"refTime":"2024-05-11T09:00:00:Z","depth":0,"parameterNumber":2,"parameterNumberName":"U-component_of_WINDS"},"data":[0,0,0,0,0,0,0,0,0,0,0,0,0,0,0,0,0,0,0,0,0,0,0,0,0,0,0,0,0,0,0,0,0,0,0,0,0,0,0,0,0,0,0,0,0,0,0,0,0,0,0,0,0,0,0,0,0,0,-1.2089,-1.2088,0,-1.2043,-1.2043,-1.2042,-1.1966,-1.1964,-1.1963,-1.1961,-1.1917,-1.1917,-1.1917,0,0,0,0,0,0,0,0,0,0,0,0,0,-1.2111,-1.2111,-1.2089,-1.2088,-1.2088,-1.2043,-1.2043,-1.2042,-1.1966,-1.1964,-1.1962,-1.1961,-1.1917,-1.1917,-1.1917,0,0,0,0,0,0,0,0,0,0,0,0,0,-1.2087,-1.2111,-1.2089,-1.2044,-1.204,-1.2043,-1.2043,-1.2042,-1.1966,-1.1964,-1.1962,-1.196,-1.1916,-1.1917,-1.1917,-1.1961,0,0,-1.1918,-1.1918,0,0,0,0,0,0,0,0,-1.2089,-1.2086,-1.2051,-1.2047,-1.2042,-1.2008,-1.2034,-1.2015,-1.1967,-1.1994,-1.1961,-1.1959,-1.1949,-1.1946,-1.1942,-1.1959,-1.1957,-1.1918,-1.1918,-1.1918,-1.1918,0,0,0,0,0,0,0,-1.209,-1.2088,-1.2071,-1.2051,-1.2045,-1.2027,-1.2021,-1.203,-1.1984,-1.1992,-1.1986,-1.1981,-1.1946,-1.1942,-1.1941,-1.1956,-1.1918,-1.1918,-1.1918,-1.1918,-1.2008,-1.201,0,0,0,0,0,0,-1.2098,-1.209,-1.2072,-1.2069,-1.2061,-1.2028,-1.2022,-1.2021,-1.1984,-1.1976,-1.1983,-1.1978,-1.1943,-1.1941,-1.1939,-1.1989,-1.1918,-1.1918,-1.1918,-1.2006,-1.2008,-1.2011,0,0,0,0,0,0,-1.2099,-1.2098,-1.2074,-1.2078,-1.2074,-1.203,-1.203,-1.2021,-1.2018,-1.1977,-1.1969,-1.1988,-1.1941,-1.1939,-1.1956,-1.1986,-1.1918,-1.1918,-1.2003,-1.2006,-1.2009,-1.2089,0,0,0,0,0,0,-1.21,-1.2098,-1.2114,-1.2079,-1.2074,-1.2092,-1.2032,-1.2022,-1.2018,-1.2011,-1.198,-1.1973,-1.1939,-1.1956,-1.1956,-1.1985,-1.1918,-1.2,-1.2004,-1.2008,-1.2084,-1.2095,-1.2105,0,0,0,0,0,-1.2101,-1.2139,-1.2115,-1.2114,-1.2093,-1.2094,-1.2091,-1.2051,-1.2021,-1.2037,-1.2011,-1.1974,-1.1983,-1.1959,-1.1958,-1.1988,-1.1998,-1.2003,-1.2008,-1.2079,-1.2093,-1.2104,0,0,0,0,0,0,-1.2179,-1.2133,-1.2107,-1.2134,-1.2118,-1.2081,-1.21,-1.2067,-1.206,-1.2053,-1.2005,-1.1999,-1.2023,-1.2007,-1.1981,-1.2029,-1.1985,-1.199,-1.2039,-1.2052,-1.2062,-1.2066,-1.1919,0,0,0,0,0,-1.22,-1.2204,-1.2163,-1.2191,-1.2185,-1.2144,-1.2143,-1.2114,-1.2096,-1.2089,-1.2064,-1.2049,-1.2048,-1.2048,-1.2046,-1.2081,-1.2074,-1.2101,-1.2111,-1.212,-1.2126,-1.2144,-1.2156,-1.2027,-1.2027,-1.2027,0,0,-1.2242,-1.2217,-1.2223,-1.2206,-1.2191,-1.2197,-1.2139,-1.2147,-1.2152,-1.209,-1.2105,-1.2087,-1.2066,-1.2093,-1.2104,-1.2081,-1.2159,-1.2126,-1.2134,-1.2134,-1.2151,-1.2163,-1.2174,-1.2031,-1.203,-1.203,0,0,-1.2322,-1.2303,-1.2325,-1.231,-1.2287,-1.226,-1.2265,-1.2232,-1.2218,-1.2232,-1.2186,-1.2191,-1.219,-1.2178,-1.2171,-1.2247,-1.2213,-1.2247,-1.2302,-1.2321,-1.2331,-1.234,-1.2368,-1.2379,-1.2253,-1.2253,-1.2253,0,-1.2378,-1.2385,-1.234,-1.2352,-1.2347,-1.229,-1.2313,-1.2301,-1.2278,-1.2276,-1.225,-1.2249,-1.2231,-1.2255,-1.2273,-1.2269,-1.2275,-1.2251,-1.2333,-1.2341,-1.2349,-1.2376,-1.2386,-1.2257,-1.2257,-1.2256,-1.2256,0,-1.2455,-1.246,-1.248,-1.246,-1.2456,-1.2473,-1.2432,-1.2434,-1.2406,-1.2381,-1.2397,-1.2373,-1.2365,-1.2368,-1.234,-1.2388,-1.2375,-1.2342,-1.2296,-1.2367,-1.2391,-1.24,-1.2264,-1.2262,-1.2261,-1.226,0,0,-1.2584,-1.2538,-1.2547,-1.2537,-1.2507,-1.2511,-1.2526,-1.2517,-1.252,-1.2506,-1.2518,-1.2519,-1.2488,-1.2481,-1.2451,-1.2467,-1.253,-1.2432,-1.2431,-1.2453,-1.2583,-1.261,-1.2622,-1.2507,-1.2509,-1.251,-1.2586,0,-1.2659,-1.2681,-1.2642,-1.2674,-1.2679,-1.2625,-1.2638,-1.2622,-1.2599,-1.2601,-1.2576,-1.2578,-1.2536,-1.2532,-1.2545,-1.252,-1.2556,-1.2514,-1.2519,-1.252,-1.2527,-1.2635,-1.2662,-1.2735,-1.2595,-1.2596,-1.2597,0,-1.275,-1.2741,-1.2773,-1.2742,-1.2742,-1.2755,-1.2744,-1.2745,-1.2726,-1.2708,-1.2701,-1.2665,-1.2678,-1.2633,-1.2651,-1.2623,-1.2623,-1.2611,-1.2612,-1.2613,-1.2564,-1.2639,-1.2757,-1.2769,-1.2612,-1.261,-1.2609,0,-1.2843,-1.2838,-1.2857,-1.285,-1.2814,-1.2824,-1.2809,-1.2787,-1.2785,-1.2776,-1.2774,-1.2766,-1.2763,-1.2758,-1.2722,-1.2693,-1.2745,-1.2697,-1.2732,-1.2733,-1.2747,-1.2747,-1.2868,-1.2744,-1.2744,-1.2744,-1.2743,0,-1.2932,-1.2954,-1.2898,-1.291,-1.2934,-1.2888,-1.2913,-1.2893,-1.2874,-1.2882,-1.2835,-1.2843,-1.2794,-1.2797,-1.2768,-1.2788,-1.2787,-1.2774,-1.2766,-1.2779,-1.2781,-1.2779,-1.2774,-1.2746,-1.2746,-1.2745,-1.2745,0,-1.3041,-1.3004,-1.3021,-1.2985,-1.2976,-1.2996,-1.2965,-1.2975,-1.2949,-1.2959,-1.2959,-1.2919,-1.292,-1.2883,-1.2877,-1.2858,-1.2891,-1.2873,-1.2898,-1.2893,-1.2931,-1.2928,-1.3056,-1.3071,-1.2937,-1.2938,-1.2939,0,-1.3101,-1.3116,-1.3082,-1.3083,-1.3071,-1.3074,-1.3071,-1.3027,-1.3026,-1.3005,-1.3018,-1.3015,-1.3011,-1.3016,-1.2987,-1.2982,-1.2965,-1.301,-1.2964,-1.2977,-1.2968,-1.2968,-1.297,-1.3021,-1.3022,-1.3024,-1.3025,0,-1.3211,-1.3192,-1.319,-1.3181,-1.3179,-1.3171,-1.3159,-1.3163,-1.3115,-1.3116,-1.3117,-1.3113,-1.3107,-1.3106,-1.3095,-1.3081,-1.3046,-1.3039,-1.3047,-1.3061,-1.3075,-1.307,-1.2926,-1.3037,-1.3036,-1.3035,-1.3034,-1.3034,-1.3298,-1.331,-1.3288,-1.3287,-1.3273,-1.3264,-1.3271,-1.3246,-1.3246,-1.3237,-1.3211,-1.3216,-1.3197,-1.3179,-1.3168,-1.3172,-1.315,-1.3162,-1.3165,-1.3169,-1.3177,-1.3073,-1.317,-1.317,-1.3169,-1.3169,-1.3169,0,-1.3408,-1.3391,-1.3391,-1.3376,-1.3375,-1.334,-1.3326,-1.3328,-1.3333,-1.3317,-1.3314,-1.3315,-1.3314,-1.3284,-1.3279,-1.3288,-1.3272,-1.3289,-1.3288,-1.3286,-1.3196,-1.319,-1.3302,-1.3302,-1.3302,-1.3302,-1.3302,-1.3302,-1.3465,-1.3484,-1.3463,-1.3474,-1.3457,-1.3462,-1.3456,-1.3447,-1.3435,-1.3438,-1.3436,-1.3417,-1.3396,-1.3389,-1.3386,-1.3378,-1.3379,-1.3402,-1.3388,-1.3305,-1.3292,-1.328,-1.3274,-1.3402,-1.3402,-1.3477,-1.3478,-1.3479]},{"header":{"parameterUnit":"m.s-1","parameterCategory":1,"la1":30.2991,"la2":30.254,"lo1":-89.0895,"lo2":-89.0444,"dy":0.0017,"dx":0.0017,"nx":28,"ny":28,"refTime":"2024-05-11T09:00:00:Z","depth":0,"parameterNumber":3,"parameterNumberName":"V-component_of_WINDS"},"data":[0,0,0,0,0,0,0,0,0,0,0,0,0,0,0,0,0,0,0,0,0,0,0,0,0,0,0,0,0,0,0,0,0,0,0,0,0,0,0,0,0,0,0,0,0,0,0,0,0,0,0,0,0,0,0,0,0,0,-2.031,-2.031,0,-2.0322,-2.0322,-2.0322,-2.0316,-2.0316,-2.0315,-2.0315,-2.0326,-2.0326,-2.0327,0,0,0,0,0,0,0,0,0,0,0,0,0,-2.0281,-2.0281,-2.031,-2.031,-2.031,-2.0322,-2.0322,-2.0322,-2.0316,-2.0316,-2.0315,-2.0315,-2.0326,-2.0326,-2.0327,0,0,0,0,0,0,0,0,0,0,0,0,0,-2.0293,-2.0281,-2.031,-2.0308,-2.0308,-2.0322,-2.0322,-2.0322,-2.0316,-2.0316,-2.0315,-2.0315,-2.0326,-2.0326,-2.0327,-2.0342,0,0,-2.033,-2.033,0,0,0,0,0,0,0,0,-2.0292,-2.0294,-2.0308,-2.0308,-2.0308,-2.0317,-2.0316,-2.0329,-2.0316,-2.0313,-2.0315,-2.0314,-2.0323,-2.0324,-2.0327,-2.0343,-2.0343,-2.033,-2.0331,-2.0331,-2.0331,0,0,0,0,0,0,0,-2.0291,-2.0293,-2.0314,-2.0309,-2.0309,-2.0307,-2.0308,-2.0318,-2.0321,-2.0313,-2.0313,-2.0314,-2.0323,-2.0327,-2.0328,-2.0343,-2.033,-2.0331,-2.0331,-2.0332,-2.0373,-2.0374,0,0,0,0,0,0,-2.0291,-2.0293,-2.0314,-2.0315,-2.0299,-2.0308,-2.0309,-2.0315,-2.032,-2.0321,-2.0315,-2.0314,-2.0325,-2.0327,-2.0328,-2.0347,-2.0331,-2.0332,-2.0332,-2.0373,-2.0373,-2.0374,0,0,0,0,0,0,-2.029,-2.0293,-2.0313,-2.0304,-2.0306,-2.0309,-2.0315,-2.0315,-2.0319,-2.0322,-2.0322,-2.0318,-2.0325,-2.0327,-2.0339,-2.0348,-2.0332,-2.0333,-2.0372,-2.0373,-2.0374,-2.0385,0,0,0,0,0,0,-2.0289,-2.0292,-2.0298,-2.0304,-2.0307,-2.0325,-2.0315,-2.0316,-2.032,-2.032,-2.0325,-2.0325,-2.0325,-2.0338,-2.034,-2.0349,-2.0334,-2.0371,-2.0372,-2.0373,-2.0384,-2.0386,-2.0388,0,0,0,0,0,-2.0288,-2.03,-2.0298,-2.0301,-2.0314,-2.0325,-2.0327,-2.0326,-2.0321,-2.0327,-2.0329,-2.0325,-2.0346,-2.0339,-2.0342,-2.035,-2.0371,-2.0372,-2.0373,-2.0383,-2.0386,-2.0388,0,0,0,0,0,0,-2.0294,-2.0301,-2.0299,-2.0313,-2.0319,-2.0324,-2.0331,-2.0329,-2.0336,-2.0335,-2.0334,-2.0335,-2.0348,-2.035,-2.0342,-2.0366,-2.0358,-2.0359,-2.0364,-2.0367,-2.0369,-2.0369,-2.0334,0,0,0,0,0,-2.0297,-2.0306,-2.0311,-2.0323,-2.0326,-2.0328,-2.0333,-2.0333,-2.0338,-2.034,-2.0343,-2.0348,-2.0357,-2.0362,-2.0369,-2.0384,-2.0386,-2.0392,-2.0394,-2.0395,-2.0397,-2.0407,-2.041,-2.0378,-2.0378,-2.0378,0,0,-2.0303,-2.0308,-2.0314,-2.0324,-2.0329,-2.0338,-2.033,-2.034,-2.0347,-2.0341,-2.0354,-2.0356,-2.0362,-2.0377,-2.0383,-2.0379,-2.0406,-2.0397,-2.0398,-2.0399,-2.0409,-2.0412,-2.0415,-2.0379,-2.0379,-2.0379,0,0,-2.032,-2.0324,-2.0335,-2.034,-2.0347,-2.0349,-2.0352,-2.0358,-2.036,-2.0372,-2.0369,-2.0377,-2.039,-2.0395,-2.0399,-2.042,-2.0417,-2.0422,-2.0433,-2.0443,-2.0445,-2.0448,-2.0456,-2.0459,-2.0423,-2.0423,-2.0423,0,-2.0326,-2.0341,-2.0341,-2.0352,-2.0357,-2.0354,-2.0366,-2.037,-2.0379,-2.0383,-2.0378,-2.0396,-2.04,-2.0416,-2.0421,-2.0424,-2.0428,-2.0422,-2.0445,-2.0447,-2.0449,-2.0458,-2.0461,-2.0424,-2.0424,-2.0424,-2.0424,0,-2.0349,-2.0359,-2.0368,-2.0378,-2.0384,-2.0395,-2.0397,-2.0404,-2.0403,-2.0405,-2.0419,-2.0423,-2.0432,-2.0436,-2.0435,-2.0453,-2.045,-2.0445,-2.0437,-2.0453,-2.0461,-2.0464,-2.0425,-2.0425,-2.0425,-2.0425,0,0,-2.0369,-2.0381,-2.0384,-2.0389,-2.0398,-2.0405,-2.0417,-2.0427,-2.0433,-2.0439,-2.0449,-2.0461,-2.0458,-2.0462,-2.0462,-2.047,-2.0488,-2.0464,-2.0465,-2.047,-2.051,-2.0515,-2.0518,-2.0486,-2.0486,-2.0487,-2.051,0,-2.0387,-2.0408,-2.0409,-2.0428,-2.0438,-2.0436,-2.0446,-2.0453,-2.0455,-2.0464,-2.0467,-2.0476,-2.047,-2.0473,-2.0481,-2.0484,-2.0496,-2.0482,-2.0496,-2.0496,-2.0496,-2.0522,-2.0526,-2.0548,-2.0513,-2.0513,-2.0514,0,-2.0411,-2.042,-2.044,-2.0449,-2.0453,-2.0462,-2.0473,-2.0481,-2.0488,-2.049,-2.0496,-2.0495,-2.0507,-2.0498,-2.0515,-2.0506,-2.0511,-2.0514,-2.0515,-2.0517,-2.0507,-2.0526,-2.0555,-2.0558,-2.0518,-2.0518,-2.0517,0,-2.0425,-2.0442,-2.0457,-2.0461,-2.0472,-2.0478,-2.0483,-2.049,-2.0497,-2.0505,-2.051,-2.0519,-2.0524,-2.0532,-2.0534,-2.0526,-2.0551,-2.0542,-2.0554,-2.0554,-2.056,-2.0559,-2.0591,-2.0561,-2.0561,-2.0561,-2.0561,0,-2.0445,-2.0458,-2.0464,-2.0473,-2.0488,-2.0489,-2.0504,-2.0508,-2.0515,-2.0525,-2.0523,-2.0532,-2.0533,-2.0543,-2.0544,-2.0559,-2.0561,-2.0563,-2.0564,-2.0564,-2.0564,-2.0569,-2.0568,-2.0562,-2.0562,-2.0562,-2.0561,0,-2.0464,-2.0468,-2.0484,-2.0494,-2.0496,-2.0507,-2.0515,-2.0524,-2.0527,-2.054,-2.0543,-2.0548,-2.0559,-2.0562,-2.0575,-2.0576,-2.0595,-2.0593,-2.0593,-2.0593,-2.0605,-2.0604,-2.0641,-2.0647,-2.0612,-2.0613,-2.0613,0,-2.0477,-2.0488,-2.0498,-2.0506,-2.0511,-2.0522,-2.053,-2.0532,-2.0539,-2.055,-2.0558,-2.057,-2.058,-2.0599,-2.0603,-2.0614,-2.0613,-2.0625,-2.0615,-2.0616,-2.0615,-2.0615,-2.0617,-2.0628,-2.0628,-2.0628,-2.0629,0,-2.0501,-2.0503,-2.0514,-2.0526,-2.0535,-2.0545,-2.0553,-2.0559,-2.0563,-2.0572,-2.0585,-2.0592,-2.0607,-2.0619,-2.063,-2.0635,-2.0633,-2.0632,-2.0636,-2.0637,-2.0637,-2.0639,-2.06,-2.0631,-2.0631,-2.0631,-2.0631,-2.0631,-2.0518,-2.0528,-2.0538,-2.0551,-2.0558,-2.0567,-2.0577,-2.0582,-2.0593,-2.0606,-2.0607,-2.0621,-2.063,-2.0645,-2.065,-2.0661,-2.0657,-2.0662,-2.0664,-2.0665,-2.0667,-2.0635,-2.0663,-2.0663,-2.0663,-2.0663,-2.0663,0,-2.0543,-2.055,-2.0562,-2.0576,-2.0586,-2.0584,-2.0594,-2.0603,-2.0616,-2.0625,-2.0635,-2.0651,-2.0663,-2.0669,-2.0681,-2.0689,-2.0689,-2.0693,-2.0693,-2.0694,-2.0669,-2.0666,-2.0693,-2.0693,-2.0693,-2.0693,-2.0693,-2.0693,-2.0558,-2.0575,-2.0579,-2.06,-2.0606,-2.0621,-2.0628,-2.0636,-2.0644,-2.0662,-2.0672,-2.0677,-2.0685,-2.0698,-2.0709,-2.0711,-2.0716,-2.0721,-2.0722,-2.0698,-2.0695,-2.0693,-2.0689,-2.0721,-2.0721,-2.0746,-2.0746,-2.0746]}]]